Wind_Speed
21 20 19 18 19 19 20 21 22 22 21 21 21 20 22 25 27 12 5 9 10 11 9 11 15 22 21 4 9 9 4 3 6 6 1 10 11 3 3 16 15 9 19 16 27
22 21 20 19 19 20 21 21 22 23 23 22 20 19 20 23 24 12 17 13 9 14 13 17 16 18 9 7 5 3 3 6 7 12 10 9 10 9 8 12 18 21 19 24 27
23 22 21 20 19 19 20 21 22 22 24 22 20 18 18 18 6 4 6 15 11 9 12 20 23 15 12 3 5 5 4 11 14 24 12 9 9 7 9 4 20 24 20 17 21
24 24 23 21 21 20 20 21 21 23 23 21 20 19 16 6 3 2 5 9 9 8 9 14 13 13 5 7 6 2 7 11 15 12 7 9 14 5 8 4 23 22 20 16 15
25 26 25 24 23 21 21 21 21 23 21 20 20 17 7 4 9 17 7 9 11 13 15 12 16 12 3 8 8 5 5 4 12 16 12 9 17 11 11 9 21 21 18 16 13
25 27 27 27 26 25 23 22 21 21 19 19 17 14 3 7 11 14 6 9 10 14 10 16 9 13 7 7 5 11 7 9 20 15 10 12 4 19 7 12 20 20 15 14 11
26 27 28 30 29 27 25 23 22 20 18 15 13 7 6 17 11 4 11 10 12 16 12 19 24 13 9 10 11 4 6 15 23 11 9 17 6 10 14 13 18 17 14 13 10
28 29 30 31 31 29 27 24 22 20 17 10 8 3 8 14 17 24 22 17 16 17 22 25 25 9 4 9 12 5 3 5 12 21 8 5 4 14 7 13 18 15 13 13 9
29 30 31 33 33 30 29 24 20 18 12 7 6 4 9 13 14 22 18 17 18 19 22 24 14 3 6 6 8 7 6 5 3 9 8 12 9 19 9 3 9 16 14 12 9
29 31 32 35 33 28 29 24 16 13 6 5 12 6 8 9 20 22 19 20 9 9 13 12 5 2 4 5 6 6 9 1 6 3 16 16 8 23 19 5 5 17 14 13 13
31 32 33 37 29 25 28 9 2 2 4 8 6 6 14 18 17 11 19 15 9 9 10 10 7 8 11 13 14 14 10 11 13 14 15 15 15 21 17 11 2 12 15 12 14
31 32 34 36 28 20 13 3 4 8 8 12 21 21 30 30 9 7 16 11 11 13 9 7 14 12 13 15 17 16 13 8 7 21 8 12 14 10 11 6 3 9 15 16 14
31 31 32 33 25 11 8 14 11 13 5 13 21 14 18 13 11 9 7 6 12 15 13 14 13 13 18 17 17 16 11 10 8 15 7 12 11 9 4 2 4 20 14 18 19
31 30 29 33 9 17 11 7 12 15 4 8 8 10 19 9 11 13 13 10 7 15 15 12 13 18 19 18 15 12 16 14 7 14 5 14 5 6 11 16 20 22 17 18 20
29 28 26 23 16 9 16 17 14 9 4 1 7 8 10 21 1 15 23 9 16 13 8 15 18 14 20 16 16 17 17 10 18 8 7 10 7 5 9 14 24 30 25 22 20
28 25 26 8 10 13 17 19 14 2 6 3 5 5 6 10 17 14 9 9 7 12 14 18 9 18 18 17 17 17 17 13 7 5 3 13 14 6 8 17 22 27 29 24 21
28 24 23 15 6 10 15 9 2 4 3 1 6 8 10 7 9 10 10 12 9 6 11 8 15 19 17 17 17 15 9 4 3 2 6 11 6 9 21 19 6 6 23 23 23
29 24 19 19 12 15 13 3 5 10 9 14 15 10 11 10 11 13 14 9 13 10 4 11 13 17 13 14 16 12 9 6 5 3 7 9 6 6 16 19 9 20 17 23 24
29 13 11 11 7 9 2 4 4 6 18 11 15 5 6 5 4 12 15 11 11 13 11 5 17 9 18 19 11 20 13 10 6 8 2 5 8 8 11 12 11 18 7 17 18
16 7 11 12 11 10 2 7 10 16 13 10 10 9 11 14 7 9 8 16 15 12 15 13 12 13 20 15 23 9 6 7 3 7 6 6 3 5 5 2 11 20 24 22 24
4 3 10 6 7 2 4 10 16 14 8 5 9 13 15 14 15 19 7 10 1 17 12 13 9 17 10 15 17 15 12 6 6 3 5 3 6 11 8 3 6 5 8 7 0
7 3 8 3 1 4 3 10 17 22 7 8 7 6 13 14 15 18 10 8 13 8 14 5 11 8 18 17 9 20 13 10 6 9 3 5 6 3 15 17 6 7 15 6 7
5 5 5 9 2 5 5 3 17 15 7 10 9 14 11 9 9 12 6 7 8 10 4 7 3 5 9 9 13 9 18 11 6 7 9 3 4 3 11 12 15 12 16 9 17
3 3 3 1 3 9 9 9 13 13 10 16 12 15 17 13 15 6 7 8 6 6 7 4 3 1 5 7 4 3 12 20 9 8 9 8 5 6 8 14 23 13 4 15 16
3 4 7 5 5 6 10 13 12 14 15 14 8 18 15 7 14 12 12 7 4 2 3 4 3 6 9 14 15 16 17 20 13 8 8 7 4 7 4 17 14 17 16 16 15
4 4 8 6 10 7 11 13 14 15 13 10 10 17 14 9 13 19 22 13 8 5 3 3 3 5 9 13 14 15 18 15 22 9 6 6 11 4 22 23 24 17 18 15 15
12 16 4 7 7 6 7 8 11 12 6 15 11 11 10 10 19 25 24 21 4 5 3 3 1 1 7 7 10 11 8 9 5 15 5 11 5 10 18 19 15 16 15 15 14
Wind_Direction
354 349 347 341 338 336 335 336 335 336 336 335 332 331 329 326 321 319 250 259 190 174 174 171 214 234 237 178 172 166 127 135 326 340 360 120 122 132 87 131 155 190 139 139 134
357 353 349 343 338 334 332 331 332 331 332 331 329 330 331 330 324 264 253 247 207 175 168 186 212 225 225 170 205 128 157 166 132 293 267 128 132 130 148 128 111 119 127 139 134
1 358 351 343 338 334 330 328 328 327 326 327 327 329 330 331 291 276 214 196 209 210 206 216 236 244 229 140 193 151 216 135 187 202 251 302 152 178 96 94 138 137 142 141 144
1 358 352 345 337 332 328 325 324 324 323 324 324 326 325 315 256 132 153 199 203 214 228 270 269 273 291 174 171 184 244 172 163 171 155 308 300 84 154 138 138 139 147 143 157
358 356 352 347 340 331 325 322 320 322 319 319 319 326 340 227 246 273 273 189 187 199 230 247 274 273 276 297 184 203 174 157 122 138 121 86 321 331 114 126 136 138 152 155 163
351 353 351 346 340 333 326 318 316 319 315 314 311 319 264 247 248 214 207 183 199 199 227 248 264 278 282 291 273 177 112 77 70 37 34 111 239 347 123 136 139 144 158 165 168
346 346 347 345 339 332 323 314 310 313 312 308 301 312 257 238 247 250 202 224 203 211 230 248 256 273 301 319 329 254 102 81 62 51 45 357 23 310 315 169 148 149 164 175 176
345 343 342 341 337 329 320 310 306 307 307 299 298 217 252 260 269 285 267 227 221 223 232 257 281 300 262 318 308 292 108 111 91 111 62 0 341 235 166 291 143 158 171 183 178
344 342 339 338 334 326 317 308 301 299 301 285 303 215 268 288 236 240 257 255 226 230 240 259 270 293 335 304 289 276 197 85 55 74 113 93 311 289 299 276 176 160 178 181 172
343 341 338 336 334 326 316 312 298 281 289 254 263 295 264 249 247 214 232 242 249 232 231 252 275 257 280 250 249 268 80 66 141 130 116 114 274 282 283 263 259 167 181 186 172
342 340 338 336 333 328 325 346 340 58 250 228 203 237 304 301 217 241 217 236 246 268 234 232 223 214 236 252 253 267 280 131 126 146 117 166 184 248 264 273 69 204 182 191 176
340 339 337 335 330 323 310 261 14 314 296 255 250 256 265 272 266 270 218 191 223 235 240 245 228 231 246 253 265 266 259 126 131 170 102 197 226 196 234 267 301 306 196 188 176
337 337 336 334 327 325 269 268 342 311 277 276 236 234 236 245 249 231 219 226 211 226 227 228 237 233 240 254 262 268 261 146 157 179 63 179 281 256 196 113 290 270 236 190 178
333 334 335 335 324 327 292 360 327 328 297 261 196 227 230 232 246 216 246 208 246 229 221 242 242 237 238 235 252 264 266 171 170 163 191 183 267 201 180 184 201 233 247 189 181
328 329 328 335 298 309 321 337 324 303 303 219 148 167 176 209 287 228 222 247 226 236 214 230 237 245 245 244 230 253 268 273 164 170 165 205 243 246 207 184 216 212 229 194 182
324 324 324 342 296 284 316 318 304 261 248 217 126 139 180 198 208 256 213 218 258 234 236 240 236 239 249 256 251 248 264 280 180 203 262 213 207 198 190 227 195 208 198 183 177
322 317 309 290 240 334 329 307 257 237 292 244 180 186 195 206 211 231 243 202 213 208 233 264 242 251 250 251 263 252 247 275 329 37 237 274 281 184 193 193 192 234 187 180 177
322 316 294 268 266 292 294 302 256 262 260 321 339 183 184 195 196 213 243 213 215 240 191 225 251 241 232 234 241 251 225 202 189 220 247 264 249 212 193 152 194 210 219 178 175
328 330 271 242 229 271 280 252 260 269 337 351 328 7 343 312 246 207 216 237 198 202 223 232 236 266 230 249 236 251 257 223 228 206 243 262 272 47 141 133 122 132 200 173 163
328 303 264 246 202 237 258 256 285 288 295 12 334 357 338 314 302 283 227 214 232 217 194 236 266 258 245 233 252 219 229 256 254 212 231 283 42 318 45 86 174 179 197 164 180
322 271 101 167 192 257 264 266 319 333 21 23 331 322 314 316 324 312 268 233 238 234 221 202 201 257 279 235 225 245 243 239 179 203 196 218 269 183 187 251 307 339 117 133 211
309 284 153 197 235 220 266 324 314 311 5 314 279 265 284 299 310 312 313 21 13 329 232 215 204 214 245 262 230 228 235 204 184 251 256 142 275 205 133 243 38 69 105 92 58
307 276 133 208 313 343 36 340 284 315 2 344 346 333 309 287 302 308 357 8 348 14 18 326 289 196 268 284 265 234 227 233 191 187 230 162 261 176 134 103 65 73 53 37 61
289 302 329 28 354 16 347 315 333 24 11 4 345 341 345 338 306 291 297 326 349 323 344 349 297 132 209 241 248 280 234 228 212 200 211 220 181 261 138 131 120 116 136 63 50
225 356 357 335 13 10 13 22 0 0 3 14 337 9 354 321 321 351 356 283 252 241 307 335 306 323 296 283 299 294 297 222 219 204 177 229 107 343 162 165 106 95 76 62 55
16 345 340 303 343 21 27 17 359 354 350 353 8 341 344 350 347 327 326 326 263 229 228 260 271 299 297 298 301 291 270 296 213 211 204 128 58 11 88 66 63 66 73 57 41
355 338 294 347 323 40 23 359 347 343 342 343 343 335 327 325 320 304 294 285 325 319 235 264 237 305 263 321 286 287 257 268 224 44 60 84 73 83 73 76 73 67 54 49 43
Height
798 795 793 790 788 785 783 781 778 776 774 771 768 766 763 757 752 750 747 742 740 742 744 747 749 747 748 750 757 758 788 801 792 778 765 745 753 745 741 755 756 757 767 775 780
799 796 793 790 787 784 781 778 776 773 772 770 767 765 762 757 750 744 738 739 739 740 743 744 744 741 747 747 746 758 771 784 781 779 775 748 749 750 755 761 767 768 772 777 782
800 796 793 789 786 783 780 777 774 772 769 767 764 763 761 758 754 735 731 736 737 738 739 738 736 732 739 745 748 755 770 754 771 767 761 760 754 746 755 767 762 771 773 777 782
800 796 793 789 785 782 779 776 773 770 767 765 762 761 760 759 768 733 734 736 737 739 741 739 734 737 741 751 742 760 743 739 751 748 759 766 760 760 753 758 752 761 769 775 782
800 796 792 788 784 781 778 775 772 768 765 762 761 759 757 758 744 733 734 734 736 738 739 737 736 733 744 737 739 753 739 731 732 746 758 765 773 761 761 749 753 761 771 775 780
799 795 790 786 782 778 775 771 769 767 763 761 759 758 759 761 732 731 732 733 734 736 736 735 731 722 730 732 737 724 732 736 749 767 761 773 780 778 764 751 755 762 771 775 778
798 794 789 785 780 775 770 767 765 763 761 759 758 757 755 739 728 732 732 730 731 733 734 730 726 727 726 737 720 729 744 751 757 771 785 779 793 791 774 754 758 766 770 773 777
797 792 787 782 777 772 767 762 760 758 758 757 756 757 751 728 726 726 727 729 729 730 730 726 723 724 727 724 730 745 747 770 767 772 789 787 803 773 775 774 758 765 770 773 775
796 791 786 780 774 768 763 758 756 755 754 754 755 754 744 722 722 721 724 725 725 726 726 724 721 729 732 752 762 748 780 777 781 765 785 794 813 773 764 765 762 763 768 771 775
794 788 783 778 772 766 759 754 751 752 753 754 754 758 732 723 716 718 720 722 723 722 726 727 732 748 752 765 794 770 777 774 791 781 783 798 805 779 765 767 774 762 765 768 771
792 787 781 774 769 765 757 753 753 756 753 747 740 731 717 711 711 713 717 720 721 726 745 733 756 769 759 747 742 743 753 770 775 777 788 793 789 771 765 767 776 769 764 767 769
790 784 778 771 766 762 761 759 753 753 754 735 730 729 719 716 720 712 713 727 732 745 734 745 757 740 735 734 739 739 747 760 771 769 776 787 776 763 765 772 779 784 766 763 766
789 783 777 768 762 760 759 754 751 749 755 730 716 718 714 715 717 717 712 718 731 741 739 751 741 727 734 740 744 742 748 754 762 771 775 789 792 775 770 772 770 764 763 755 758
787 782 777 768 764 761 756 753 751 749 769 731 712 708 708 710 720 707 707 717 726 738 736 741 727 730 734 740 737 761 722 730 748 768 793 774 809 775 768 777 775 764 763 749 752
784 780 776 775 769 764 757 754 752 751 793 695 702 688 694 713 709 709 702 713 731 732 734 739 736 736 737 733 725 740 717 727 744 756 763 776 791 759 752 777 764 761 760 744 745
780 778 774 772 768 759 757 754 752 776 778 711 698 704 709 708 711 701 710 707 710 725 723 729 714 720 726 715 716 711 723 726 731 753 783 763 777 760 761 746 742 744 738 733 738
776 774 772 771 765 760 758 756 778 781 716 714 715 705 713 717 716 713 720 728 741 754 750 735 728 716 710 729 715 721 743 779 787 790 801 745 754 755 722 720 726 737 725 725 731
771 768 764 762 761 760 759 770 784 741 733 706 708 700 716 710 716 715 722 734 723 731 748 756 762 724 707 720 732 732 741 774 800 804 787 741 762 746 703 713 718 711 717 717 725
767 764 761 757 758 760 764 781 763 742 725 723 715 714 717 707 710 715 721 726 718 721 752 755 746 710 705 704 712 727 742 724 757 759 776 755 726 714 705 720 714 718 731 719 724
768 765 756 753 757 758 770 774 757 737 725 726 743 728 740 727 723 720 720 706 711 703 708 728 755 721 704 700 698 715 708 747 744 789 794 762 754 759 728 724 728 727 718 705 712
770 765 751 753 755 761 774 760 747 728 726 737 743 743 738 735 729 726 713 698 698 697 698 714 735 730 714 716 722 718 727 724 732 754 785 789 772 724 724 710 713 723 706 710 710
772 768 751 752 764 758 760 754 746 738 726 732 731 735 740 731 735 729 717 711 694 698 706 700 719 747 726 701 691 698 715 721 749 767 756 765 758 693 692 706 710 712 709 717 711
778 762 751 750 768 760 750 755 748 736 734 737 739 734 728 735 746 727 716 702 699 707 724 715 728 750 740 721 699 708 698 707 715 724 754 772 763 696 698 707 712 719 711 718 711
781 769 755 752 757 765 765 759 754 742 743 745 746 740 742 743 729 733 721 706 700 704 706 708 721 732 754 732 710 711 705 697 718 742 742 746 738 721 711 712 708 726 731 726 726
778 771 770 772 765 765 768 767 767 768 759 756 757 762 767 762 744 741 723 717 704 706 705 714 732 723 718 709 707 710 710 695 712 717 738 730 734 730 717 710 715 718 731 733 738
786 788 775 772 765 769 777 780 777 776 775 773 778 776 771 773 775 771 755 736 723 709 711 711 736 721 731 712 711 713 702 697 689 699 707 717 741 720 709 723 726 736 739 746 745
793 788 782 775 773 777 786 784 784 779 776 775 778 782 779 772 770 762 749 739 721 722 719 723 730 737 748 724 717 733 707 698 691 705 709 742 743 725 742 741 748 748 754 757 758